| time (UTC) | temp C | wind direction | speed KPH | gust KPH | rain 1hr cm | rain 24hr cm | rain mn cm | humidity % | barometer mb |
| 20260506044920 | 10 | 80 | 0.0 | 1.6 | 0.00 | 0.20 | 0.20 | 53 | 1009.7 |
| 20260506044418 | 10 | 88 | 0.0 | 0.0 | 0.00 | 0.20 | 0.20 | 56 | 1009.7 |
| 20260506043915 | 10 | 72 | 1.6 | 1.6 | 0.00 | 0.20 | 0.20 | 52 | 1009.8 |
| 20260506043412 | 10 | 85 | 0.0 | 1.6 | 0.00 | 0.20 | 0.20 | 57 | 1009.9 |
| 20260506042910 | 10 | 85 | 0.0 | 1.6 | 0.00 | 0.20 | 0.20 | 58 | 1009.7 |
| 20260506042409 | 10 | 73 | 1.6 | 4.8 | 0.00 | 0.20 | 0.20 | 56 | 1010.0 |
| 20260506041907 | 10 | 84 | 0.0 | 1.6 | 0.00 | 0.20 | 0.20 | 54 | 1009.9 |
| 20260506041404 | 10 | 84 | 1.6 | 4.8 | 0.00 | 0.20 | 0.20 | 54 | 1010.0 |
| 20260506040901 | 10 | 84 | 0.0 | 1.6 | 0.00 | 0.20 | 0.20 | 54 | 1010.1 |
| 20260506040358 | 10 | 30 | 1.6 | 1.6 | 0.00 | 0.20 | 0.20 | 54 | 1010.0 |
| 20260506035854 | 10 | 95 | 0.0 | 1.6 | 0.00 | 0.20 | 0.20 | 55 | 1010.1 |
| 20260506035352 | 10 | 105 | 0.0 | 4.8 | 0.00 | 0.20 | 0.20 | 55 | 1010.1 |
| 20260506034849 | 10 | 84 | 0.0 | 1.6 | 0.00 | 0.20 | 0.20 | 57 | 1010.0 |
| 20260506034346 | 10 | 89 | 0.0 | 0.0 | 0.00 | 0.20 | 0.20 | 62 | 1009.7 |
| 20260506033843 | 9 | 93 | 0.0 | 0.0 | 0.00 | 0.20 | 0.20 | 65 | 1009.8 |
| 20260506033340 | 9 | 96 | 0.0 | 0.0 | 0.00 | 0.20 | 0.20 | 67 | 1009.9 |
| 20260506032837 | 9 | 101 | 0.0 | 0.0 | 0.00 | 0.20 | 0.20 | 65 | 1009.9 |
| 20260506032333 | 9 | 100 | 0.0 | 0.0 | 0.00 | 0.20 | 0.20 | 63 | 1009.5 |
| 20260506031831 | 9 | 96 | 0.0 | 0.0 | 0.00 | 0.20 | 0.20 | 62 | 1009.5 |
| 20260506031328 | 9 | 96 | 0.0 | 0.0 | 0.00 | 0.20 | 0.20 | 63 | 1009.3 |
| 20260506030825 | 9 | 96 | 0.0 | 0.0 | 0.00 | 0.20 | 0.20 | 64 | 1009.3 |
| 20260506030323 | 9 | 96 | 0.0 | 0.0 | 0.00 | 0.20 | 0.20 | 62 | 1009.4 |
| 20260506025820 | 9 | 96 | 0.0 | 0.0 | 0.00 | 0.20 | 0.20 | 63 | 1009.3 |
| 20260506025316 | 10 | 96 | 0.0 | 0.0 | 0.00 | 0.20 | 0.20 | 65 | 1009.3 |
| 20260506024813 | 10 | 96 | 0.0 | 0.0 | 0.00 | 0.20 | 0.20 | 62 | 1009.3 |
| 20260506024310 | 10 | 96 | 0.0 | 0.0 | 0.00 | 0.20 | 0.20 | 62 | 1009.3 |
| 20260506023806 | 10 | 95 | 0.0 | 0.0 | 0.00 | 0.20 | 0.20 | 64 | 1009.2 |
| 20260506023303 | 10 | 97 | 0.0 | 0.0 | 0.00 | 0.20 | 0.20 | 63 | 1009.3 |
| 20260506022800 | 10 | 97 | 0.0 | 0.0 | 0.00 | 0.20 | 0.20 | 63 | 1009.7 |
| 20260506022258 | 10 | 111 | 0.0 | 0.0 | 0.00 | 0.20 | 0.20 | 61 | 1009.4 |
| 20260506021756 | 10 | 97 | 0.0 | 0.0 | 0.00 | 0.20 | 0.20 | 60 | 1009.2 |
| 20260506021252 | 10 | 97 | 0.0 | 0.0 | 0.00 | 0.20 | 0.20 | 60 | 1009.0 |
| 20260506020749 | 10 | 97 | 0.0 | 0.0 | 0.00 | 0.20 | 0.20 | 62 | 1009.1 |
| 20260506020247 | 10 | 101 | 0.0 | 0.0 | 0.00 | 0.20 | 0.20 | 63 | 1009.0 |
| 20260506015744 | 10 | 101 | 0.0 | 0.0 | 0.00 | 0.20 | 0.20 | 60 | 1009.1 |
| 20260506015242 | 10 | 91 | 0.0 | 0.0 | 0.00 | 0.20 | 0.20 | 62 | 1008.7 |
| 20260506014738 | 10 | 90 | 0.0 | 0.0 | 0.00 | 0.20 | 0.20 | 60 | 1008.4 |
| 20260506014235 | 10 | 89 | 0.0 | 0.0 | 0.00 | 0.20 | 0.20 | 60 | 1008.4 |
| 20260506013732 | 10 | 88 | 0.0 | 0.0 | 0.00 | 0.20 | 0.20 | 62 | 1008.6 |
| 20260506013229 | 10 | 104 | 0.0 | 0.0 | 0.00 | 0.20 | 0.20 | 58 | 1008.6 |
| 20260506012725 | 10 | 99 | 0.0 | 0.0 | 0.00 | 0.20 | 0.20 | 57 | 1008.6 |
| 20260506012223 | 11 | 88 | 0.0 | 0.0 | 0.00 | 0.20 | 0.20 | 58 | 1008.3 |
| 20260506011720 | 11 | 86 | 0.0 | 0.0 | 0.00 | 0.20 | 0.20 | 58 | 1008.2 |
| 20260506011216 | 11 | 84 | 0.0 | 1.6 | 0.00 | 0.20 | 0.20 | 57 | 1008.2 |
| 20260506010715 | 11 | 86 | 0.0 | 1.6 | 0.00 | 0.20 | 0.20 | 55 | 1008.2 |
| 20260506010211 | 11 | 87 | 0.0 | 0.0 | 0.00 | 0.20 | 0.20 | 55 | 1008.4 |
| 20260506005709 | 11 | 80 | 0.0 | 1.6 | 0.00 | 0.20 | 0.20 | 56 | 1008.1 |
| 20260506005205 | 11 | 87 | 0.0 | 1.6 | 0.00 | 0.20 | 0.20 | 54 | 1008.2 |
| 20260506004701 | 11 | 83 | 0.0 | 1.6 | 0.00 | 0.20 | 0.20 | 50 | 1008.1 |
| 20260506004159 | 11 | 129 | 1.6 | 1.6 | 0.00 | 0.20 | 0.20 | 50 | 1008.0 |
| 20260506003655 | 11 | 80 | 0.0 | 1.6 | 0.00 | 0.20 | 0.20 | 49 | 1007.9 |
| 20260506003151 | 11 | 87 | 1.6 | 3.2 | 0.00 | 0.20 | 0.20 | 48 | 1007.9 |
| 20260506002647 | 11 | 54 | 1.6 | 3.2 | 0.00 | 0.20 | 0.20 | 49 | 1007.6 |
| 20260506002143 | 11 | 86 | 1.6 | 3.2 | 0.00 | 0.20 | 0.20 | 47 | 1007.8 |
| 20260506001639 | 11 | 74 | 1.6 | 1.6 | 0.00 | 0.20 | 0.20 | 46 | 1007.7 |
| 20260506001137 | 12 | 98 | 0.0 | 1.6 | 0.00 | 0.20 | 0.20 | 49 | 1007.8 |
| 20260506000634 | 12 | 46 | 1.6 | 8.0 | 0.00 | 0.20 | 0.20 | 47 | 1008.1 |
| 20260506000131 | 12 | 46 | 1.6 | 4.8 | 0.00 | 0.20 | 0.20 | 48 | 1007.8 |
| 20260505235629 | 12 | 71 | 1.6 | 4.8 | 0.00 | 0.20 | 0.20 | 47 | 1007.8 |
| 20260505235126 | 12 | 66 | 1.6 | 3.2 | 0.00 | 0.20 | 0.20 | 50 | 1007.7 |
| 20260505234617 | 12 | 58 | 1.6 | 3.2 | 0.00 | 0.20 | 0.20 | 47 | 1007.9 |
| 20260505234114 | 12 | 70 | 1.6 | 3.2 | 0.00 | 0.20 | 0.20 | 46 | 1007.6 |
| 20260505233612 | 12 | 136 | 0.0 | 3.2 | 0.00 | 0.20 | 0.20 | 49 | 1007.8 |
| 20260505233109 | 12 | 71 | 1.6 | 4.8 | 0.00 | 0.20 | 0.20 | 45 | 1007.8 |
| 20260505232607 | 12 | 261 | 3.2 | 4.8 | 0.00 | 0.20 | 0.20 | 47 | 1008.0 |
| 20260505232104 | 12 | 32 | 1.6 | 4.8 | 0.00 | 0.20 | 0.20 | 44 | 1008.0 |
| 20260505231601 | 12 | 28 | 3.2 | 3.2 | 0.00 | 0.20 | 0.20 | 46 | 1008.1 |
| 20260505231059 | 12 | 115 | 1.6 | 3.2 | 0.00 | 0.20 | 0.20 | 43 | 1007.9 |
| 20260505230557 | 12 | 75 | 0.0 | 3.2 | 0.00 | 0.20 | 0.20 | 41 | 1007.8 |
| 20260505230053 | 12 | 353 | 4.8 | 4.8 | 0.00 | 0.20 | 0.20 | 42 | 1008.2 |
| 20260505225550 | 12 | 54 | 3.2 | 3.2 | 0.00 | 0.20 | 0.20 | 48 | 1007.9 |
| 20260505225046 | 12 | 56 | 1.6 | 3.2 | 0.00 | 0.20 | 0.20 | 44 | 1008.1 |
| 20260505224543 | 12 | 264 | 4.8 | 4.8 | 0.00 | 0.20 | 0.20 | 45 | 1008.1 |
| 20260505224040 | 12 | 80 | 3.2 | 8.0 | 0.00 | 0.20 | 0.20 | 44 | 1008.5 |
| 20260505223537 | 12 | 9 | 1.6 | 8.0 | 0.00 | 0.20 | 0.20 | 46 | 1008.2 |
| 20260505223033 | 12 | 55 | 3.2 | 4.8 | 0.00 | 0.20 | 0.20 | 42 | 1008.2 |
| 20260505222530 | 12 | 289 | 3.2 | 4.8 | 0.00 | 0.20 | 0.20 | 42 | 1008.3 |
| 20260505222026 | 12 | 297 | 4.8 | 4.8 | 0.00 | 0.20 | 0.20 | 42 | 1008.3 |
| 20260505221523 | 13 | 260 | 3.2 | 4.8 | 0.00 | 0.20 | 0.20 | 48 | 1008.4 |
| 20260505221020 | 13 | 348 | 4.8 | 8.0 | 0.00 | 0.20 | 0.20 | 43 | 1008.1 |
| 20260505220517 | 13 | 26 | 1.6 | 3.2 | 0.00 | 0.20 | 0.20 | 44 | 1008.3 |
| 20260505220015 | 12 | 277 | 3.2 | 8.0 | 0.00 | 0.20 | 0.20 | 40 | 1008.3 |
| 20260505215513 | 12 | 187 | 1.6 | 3.2 | 0.00 | 0.20 | 0.20 | 42 | 1008.6 |
| 20260505215010 | 12 | 76 | 1.6 | 3.2 | 0.00 | 0.20 | 0.20 | 44 | 1008.6 |
| 20260505214508 | 12 | 105 | 1.6 | 4.8 | 0.00 | 0.20 | 0.20 | 44 | 1008.3 |
| 20260505214004 | 12 | 79 | 1.6 | 3.2 | 0.00 | 0.20 | 0.20 | 46 | 1008.5 |
| 20260505213503 | 12 | 277 | 3.2 | 3.2 | 0.00 | 0.20 | 0.20 | 47 | 1008.4 |
| 20260505212958 | 12 | 267 | 4.8 | 4.8 | 0.00 | 0.20 | 0.20 | 40 | 1008.3 |
| 20260505212455 | 13 | 315 | 1.6 | 8.0 | 0.00 | 0.20 | 0.20 | 45 | 1008.3 |
| 20260505211952 | 13 | 310 | 3.2 | 4.8 | 0.00 | 0.20 | 0.20 | 42 | 1008.6 |
| 20260505211449 | 12 | 167 | 1.6 | 8.0 | 0.00 | 0.20 | 0.20 | 40 | 1008.4 |
| 20260505210945 | 12 | 71 | 3.2 | 8.0 | 0.00 | 0.20 | 0.20 | 42 | 1008.5 |
| 20260505210443 | 12 | 132 | 1.6 | 8.0 | 0.00 | 0.20 | 0.20 | 42 | 1008.4 |
| 20260505205939 | 12 | 275 | 4.8 | 4.8 | 0.00 | 0.20 | 0.20 | 40 | 1008.3 |
| 20260505205438 | 12 | 254 | 4.8 | 4.8 | 0.00 | 0.20 | 0.20 | 42 | 1008.4 |
| 20260505204934 | 12 | 78 | 3.2 | 4.8 | 0.00 | 0.20 | 0.20 | 44 | 1008.4 |
| 20260505204432 | 12 | 293 | 4.8 | 4.8 | 0.00 | 0.20 | 0.20 | 45 | 1008.4 |
| 20260505203929 | 12 | 258 | 3.2 | 8.0 | 0.00 | 0.20 | 0.20 | 42 | 1008.5 |
| 20260505203426 | 12 | 261 | 6.4 | 8.0 | 0.00 | 0.20 | 0.20 | 40 | 1008.7 |
| 20260505202922 | 12 | 77 | 4.8 | 4.8 | 0.00 | 0.20 | 0.20 | 42 | 1008.5 |
| 20260505202418 | 12 | 3 | 8.0 | 9.7 | 0.00 | 0.20 | 0.20 | 39 | 1008.4 |
| 20260505201915 | 12 | 233 | 3.2 | 8.0 | 0.00 | 0.20 | 0.20 | 42 | 1008.7 |
| 20260505201412 | 12 | 157 | 3.2 | 8.0 | 0.00 | 0.20 | 0.20 | 42 | 1008.6 |
| 20260505200910 | 12 | 307 | 3.2 | 4.8 | 0.00 | 0.20 | 0.20 | 41 | 1008.6 |
| 20260505200407 | 12 | 40 | 4.8 | 9.7 | 0.00 | 0.20 | 0.20 | 44 | 1008.7 |
| 20260505195902 | 12 | 228 | 4.8 | 4.8 | 0.00 | 0.20 | 0.20 | 42 | 1008.8 |
| 20260505195400 | 13 | 78 | 1.6 | 4.8 | 0.00 | 0.20 | 0.20 | 46 | 1008.6 |
| 20260505194857 | 12 | 85 | 1.6 | 1.6 | 0.00 | 0.20 | 0.20 | 43 | 1008.8 |
| 20260505194355 | 12 | 5 | 3.2 | 8.0 | 0.00 | 0.20 | 0.20 | 40 | 1008.7 |
| 20260505193855 | 12 | 354 | 1.6 | 8.0 | 0.00 | 0.20 | 0.20 | 41 | 1008.5 |
| 20260505193353 | 13 | 70 | 3.2 | 3.2 | 0.00 | 0.20 | 0.20 | 40 | 1008.7 |
| 20260505192850 | 12 | 136 | 1.6 | 3.2 | 0.00 | 0.20 | 0.20 | 42 | 1008.8 |
| 20260505192348 | 12 | 5 | 1.6 | 3.2 | 0.00 | 0.20 | 0.20 | 40 | 1008.8 |
| 20260505191845 | 13 | 338 | 4.8 | 4.8 | 0.00 | 0.20 | 0.20 | 41 | 1008.7 |
| 20260505191344 | 13 | 48 | 1.6 | 3.2 | 0.00 | 0.20 | 0.20 | 48 | 1008.9 |
| 20260505190840 | 13 | 93 | 1.6 | 4.8 | 0.00 | 0.20 | 0.20 | 42 | 1008.9 |
| 20260505190336 | 12 | 298 | 3.2 | 3.2 | 0.00 | 0.20 | 0.20 | 44 | 1008.9 |
| 20260505185832 | 12 | 64 | 1.6 | 3.2 | 0.00 | 0.20 | 0.20 | 47 | 1009.0 |
| 20260505185328 | 13 | 18 | 8.0 | 9.7 | 0.00 | 0.20 | 0.20 | 44 | 1008.9 |
| 20260505184824 | 12 | 83 | 1.6 | 3.2 | 0.00 | 0.20 | 0.20 | 46 | 1008.9 |
| 20260505184322 | 12 | 144 | 1.6 | 8.0 | 0.00 | 0.20 | 0.20 | 44 | 1009.0 |
| 20260505183819 | 13 | 4 | 1.6 | 9.7 | 0.00 | 0.20 | 0.20 | 48 | 1008.8 |
| 20260505183316 | 13 | 308 | 3.2 | 8.0 | 0.00 | 0.20 | 0.20 | 47 | 1009.1 |
| 20260505182812 | 13 | 69 | 1.6 | 9.7 | 0.00 | 0.20 | 0.20 | 45 | 1008.9 |
| 20260505182309 | 12 | 42 | 3.2 | 4.8 | 0.00 | 0.20 | 0.20 | 42 | 1008.9 |
| 20260505181806 | 13 | 91 | 3.2 | 8.0 | 0.00 | 0.20 | 0.20 | 45 | 1008.8 |
| 20260505181303 | 13 | 59 | 1.6 | 3.2 | 0.00 | 0.20 | 0.20 | 45 | 1008.7 |
| 20260505180800 | 13 | 40 | 1.6 | 4.8 | 0.00 | 0.20 | 0.20 | 46 | 1008.9 |
| 20260505180256 | 13 | 29 | 3.2 | 4.8 | 0.00 | 0.20 | 0.20 | 44 | 1008.8 |
| 20260505175752 | 13 | 7 | 11.3 | 12.9 | 0.00 | 0.20 | 0.20 | 44 | 1008.8 |
| 20260505175249 | 13 | 269 | 8.0 | 11.3 | 0.00 | 0.20 | 0.20 | 44 | 1008.8 |
| 20260505174746 | 13 | 65 | 3.2 | 8.0 | 0.00 | 0.20 | 0.20 | 47 | 1008.9 |
| 20260505174243 | 13 | 264 | 4.8 | 8.0 | 0.00 | 0.20 | 0.20 | 44 | 1008.7 |
| 20260505173739 | 13 | 21 | 6.4 | 8.0 | 0.00 | 0.20 | 0.20 | 43 | 1008.4 |
| 20260505173236 | 13 | 341 | 6.4 | 8.0 | 0.00 | 0.20 | 0.20 | 44 | 1008.6 |
| 20260505172733 | 13 | 174 | 4.8 | 8.0 | 0.00 | 0.20 | 0.20 | 43 | 1008.8 |
| 20260505172230 | 13 | 80 | 1.6 | 9.7 | 0.00 | 0.20 | 0.20 | 47 | 1008.7 |
| 20260505171729 | 13 | 11 | 4.8 | 8.0 | 0.00 | 0.20 | 0.20 | 48 | 1008.6 |
| 20260505171227 | 13 | 85 | 3.2 | 4.8 | 0.00 | 0.20 | 0.20 | 45 | 1008.4 |
| 20260505170723 | 13 | 292 | 4.8 | 8.0 | 0.00 | 0.20 | 0.20 | 41 | 1008.3 |
| 20260505170220 | 13 | 22 | 4.8 | 8.0 | 0.00 | 0.20 | 0.20 | 45 | 1008.5 |
| 20260505165716 | 13 | 268 | 6.4 | 8.0 | 0.00 | 0.20 | 0.20 | 45 | 1008.3 |
| 20260505165212 | 14 | 195 | 1.6 | 3.2 | 0.00 | 0.20 | 0.20 | 43 | 1008.3 |
| 20260505164707 | 13 | 327 | 4.8 | 8.0 | 0.00 | 0.20 | 0.20 | 43 | 1008.2 |
| 20260505164205 | 13 | 169 | 3.2 | 8.0 | 0.00 | 0.20 | 0.20 | 42 | 1008.2 |
| 20260505163703 | 13 | 20 | 4.8 | 8.0 | 0.00 | 0.20 | 0.20 | 42 | 1008.3 |
| 20260505163201 | 13 | 76 | 3.2 | 11.3 | 0.00 | 0.20 | 0.20 | 44 | 1008.4 |
| 20260505162658 | 13 | 3 | 1.6 | 8.0 | 0.00 | 0.20 | 0.20 | 44 | 1008.6 |
| 20260505162155 | 13 | 26 | 3.2 | 9.7 | 0.00 | 0.20 | 0.20 | 47 | 1008.5 |
| 20260505161652 | 12 | 26 | 4.8 | 8.0 | 0.00 | 0.20 | 0.20 | 47 | 1008.6 |
| 20260505161149 | 12 | 82 | 1.6 | 4.8 | 0.00 | 0.20 | 0.20 | 53 | 1008.5 |
| 20260505160647 | 12 | 111 | 1.6 | 4.8 | 0.00 | 0.20 | 0.20 | 51 | 1008.5 |
| 20260505160144 | 12 | 69 | 1.6 | 3.2 | 0.00 | 0.20 | 0.20 | 53 | 1008.4 |
| 20260505153124 | 12 | 26 | 4.8 | 8.0 | 0.00 | 0.20 | 0.20 | 55 | 1008.1 |
| 20260505152620 | 12 | 265 | 3.2 | 4.8 | 0.00 | 0.20 | 0.20 | 55 | 1008.0 |
| 20260505152116 | 11 | 340 | 3.2 | 8.0 | 0.00 | 0.20 | 0.20 | 62 | 1008.1 |
| 20260505151611 | 11 | 266 | 3.2 | 4.8 | 0.00 | 0.20 | 0.20 | 54 | 1008.1 |
| 20260505151109 | 11 | 274 | 4.8 | 4.8 | 0.00 | 0.20 | 0.20 | 57 | 1008.2 |
| 20260505150605 | 11 | 273 | 3.2 | 4.8 | 0.00 | 0.20 | 0.20 | 57 | 1008.0 |
| 20260505140531 | 8 | 48 | 1.6 | 3.2 | 0.00 | 0.20 | 0.20 | 82 | 1008.6 |
| 20260505124944 | 6 | 90 | 0.0 | 0.0 | 0.30 | 0.20 | 0.20 | 90 | 1008.1 |
| 20260505124441 | 7 | 80 | 0.0 | 0.0 | 0.18 | 0.18 | 0.18 | 89 | 1008.5 |
| 20260505123937 | 7 | 97 | 0.0 | 0.0 | 0.13 | 0.15 | 0.15 | 89 | 1008.3 |
| 20260505123434 | 7 | 86 | 1.6 | 1.6 | 0.30 | 0.15 | 0.15 | 88 | 1008.9 |
| 20260505122929 | 7 | 131 | 1.6 | 1.6 | 0.18 | 0.13 | 0.13 | 87 | 1008.8 |
| 20260505122427 | 7 | 93 | 0.0 | 0.0 | 0.18 | 0.10 | 0.10 | 86 | 1008.4 |
| 20260505121924 | 7 | 82 | 0.0 | 0.0 | 0.00 | 0.08 | 0.08 | 84 | 1008.4 |
| 20260505121421 | 7 | 84 | 0.0 | 0.0 | 0.13 | 0.08 | 0.08 | 81 | 1008.3 |
| 20260505120916 | 7 | 73 | 0.0 | 1.6 | 0.13 | 0.08 | 0.08 | 82 | 1008.3 |
| 20260505120413 | 8 | 84 | 0.0 | 0.0 | 0.18 | 0.05 | 0.05 | 81 | 1008.7 |
| 20260505115912 | 8 | 51 | 1.6 | 3.2 | 0.18 | 0.05 | 0.05 | 80 | 1008.8 |
| 20260505115409 | 8 | 69 | 1.6 | 3.2 | 0.13 | 0.03 | 0.03 | 77 | 1008.6 |
| 20260505114907 | 8 | 95 | 1.6 | 3.2 | 0.13 | 0.03 | 0.03 | 74 | 1008.5 |
| 20260505114403 | 8 | 29 | 0.0 | 0.0 | 0.00 | 0.00 | 0.00 | 73 | 1008.1 |
| 20260505113859 | 9 | 79 | 0.0 | 0.0 | 0.00 | 0.00 | 0.00 | 69 | 1007.7 |
| 20260505113356 | 9 | 93 | 0.0 | 0.0 | 0.00 | 0.00 | 0.00 | 67 | 1007.4 |
| 20260505112852 | 9 | 80 | 1.6 | 1.6 | 0.00 | 0.00 | 0.00 | 66 | 1007.4 |
| 20260505112350 | 10 | 54 | 1.6 | 3.2 | 0.00 | 0.00 | 0.00 | 63 | 1007.6 |
| 20260505111845 | 10 | 74 | 1.6 | 3.2 | 0.00 | 0.00 | 0.00 | 63 | 1006.8 |
| 20260505111341 | 10 | 76 | 0.0 | 1.6 | 0.00 | 0.00 | 0.00 | 63 | 1006.4 |
| 20260505110837 | 10 | 95 | 0.0 | 1.6 | 0.00 | 0.00 | 0.00 | 64 | 1006.0 |
| 20260505110334 | 10 | 87 | 0.0 | 1.6 | 0.00 | 0.00 | 0.00 | 62 | 1006.1 |
| 20260505101809 | 10 | 11 | 0.0 | 0.0 | 0.00 | 0.00 | 0.00 | 62 | 1005.4 |
| 20260505101305 | 10 | 87 | 0.0 | 0.0 | 0.00 | 0.00 | 0.00 | 60 | 1005.1 |
| 20260505100801 | 10 | 89 | 0.0 | 1.6 | 0.00 | 0.00 | 0.00 | 62 | 1005.3 |
| 20260505100258 | 10 | 41 | 1.6 | 1.6 | 0.00 | 0.00 | 0.00 | 60 | 1005.4 |
| 20260505095753 | 11 | 88 | 0.0 | 0.0 | 0.00 | 0.00 | 0.00 | 58 | 1005.5 |
| 20260505095251 | 11 | 80 | 1.6 | 4.8 | 0.00 | 0.00 | 0.00 | 57 | 1005.4 |
| 20260505094746 | 11 | 81 | 0.0 | 1.6 | 0.00 | 0.00 | 0.00 | 60 | 1005.5 |
| 20260505094244 | 11 | 77 | 1.6 | 3.2 | 0.00 | 0.00 | 0.00 | 57 | 1005.6 |
| 20260505093739 | 11 | 64 | 3.2 | 4.8 | 0.00 | 0.00 | 0.00 | 56 | 1005.8 |
| 20260505093237 | 11 | 74 | 0.0 | 1.6 | 0.00 | 0.00 | 0.00 | 56 | 1005.6 |
| 20260505092734 | 11 | 81 | 0.0 | 8.0 | 0.00 | 0.00 | 0.00 | 54 | 1005.5 |
| 20260505092233 | 11 | 85 | 0.0 | 3.2 | 0.00 | 0.00 | 0.00 | 57 | 1005.7 |
| 20260505091729 | 11 | 78 | 1.6 | 4.8 | 0.00 | 0.00 | 0.00 | 58 | 1005.8 |
| 20260505091228 | 11 | 33 | 1.6 | 3.2 | 0.00 | 0.00 | 0.00 | 60 | 1005.6 |
| 20260505090725 | 12 | 97 | 0.0 | 3.2 | 0.00 | 0.00 | 0.00 | 60 | 1005.4 |
| 20260505090223 | 12 | 5 | 6.4 | 8.0 | 0.00 | 0.00 | 0.00 | 60 | 1005.1 |
| 20260505085720 | 12 | 58 | 1.6 | 3.2 | 0.00 | 0.00 | 0.00 | 59 | 1004.9 |
| 20260505085218 | 12 | 259 | 3.2 | 3.2 | 0.00 | 0.00 | 0.00 | 58 | 1004.9 |
| 20260505084715 | 12 | 348 | 3.2 | 4.8 | 0.00 | 0.00 | 0.00 | 57 | 1004.6 |
| 20260505084214 | 12 | 353 | 4.8 | 8.0 | 0.00 | 0.00 | 0.00 | 56 | 1004.5 |
| 20260505083711 | 12 | 43 | 0.0 | 4.8 | 0.00 | 0.00 | 0.00 | 57 | 1004.4 |
| 20260505083208 | 12 | 58 | 3.2 | 4.8 | 0.00 | 0.00 | 0.00 | 56 | 1004.1 |
| 20260505082703 | 12 | 54 | 3.2 | 4.8 | 0.00 | 0.00 | 0.00 | 56 | 1004.2 |
| 20260505082201 | 12 | 63 | 1.6 | 3.2 | 0.00 | 0.00 | 0.00 | 55 | 1003.7 |
| 20260505081656 | 12 | 23 | 3.2 | 4.8 | 0.00 | 0.00 | 0.00 | 55 | 1003.5 |
| 20260505081154 | 12 | 51 | 3.2 | 3.2 | 0.00 | 0.00 | 0.00 | 56 | 1003.5 |
| 20260505080651 | 12 | 28 | 1.6 | 3.2 | 0.00 | 0.00 | 0.00 | 54 | 1003.3 |
| 20260505080147 | 12 | 14 | 3.2 | 4.8 | 0.00 | 0.00 | 0.00 | 54 | 1003.3 |
| 20260505075643 | 12 | 352 | 3.2 | 3.2 | 0.00 | 0.00 | 0.00 | 55 | 1003.2 |
| 20260505075140 | 12 | 17 | 1.6 | 4.8 | 0.00 | 0.00 | 0.00 | 56 | 1003.0 |
| 20260505074637 | 12 | 76 | 1.6 | 3.2 | 0.00 | 0.00 | 0.00 | 56 | 1003.0 |
| 20260505074134 | 13 | 18 | 3.2 | 4.8 | 0.00 | 0.00 | 0.00 | 55 | 1003.0 |
| 20260505073631 | 13 | 71 | 3.2 | 3.2 | 0.00 | 0.00 | 0.00 | 55 | 1002.8 |
| 20260505073129 | 13 | 78 | 1.6 | 4.8 | 0.00 | 0.00 | 0.00 | 56 | 1002.7 |
| 20260505072624 | 13 | 19 | 4.8 | 4.8 | 0.00 | 0.00 | 0.00 | 56 | 1002.8 |
| 20260505072122 | 13 | 61 | 3.2 | 3.2 | 0.00 | 0.00 | 0.00 | 57 | 1002.8 |
| 20260505071617 | 13 | 40 | 4.8 | 4.8 | 0.00 | 0.00 | 0.00 | 57 | 1002.7 |
| 20260505071115 | 13 | 76 | 1.6 | 4.8 | 0.00 | 0.00 | 0.00 | 57 | 1002.6 |
| 20260505070612 | 13 | 86 | 0.0 | 3.2 | 0.00 | 0.00 | 0.00 | 56 | 1002.6 |
| 20260505070108 | 13 | 66 | 3.2 | 3.2 | 0.00 | 0.00 | 0.00 | 58 | 1002.5 |
| 20260505065604 | 12 | 83 | 1.6 | 1.6 | 0.00 | 0.00 | 0.00 | 58 | 1002.3 |
| 20260505065101 | 13 | 85 | 0.0 | 0.0 | 0.00 | 0.00 | 0.00 | 60 | 1002.3 |
| 20260505064558 | 13 | 69 | 1.6 | 1.6 | 0.00 | 0.00 | 0.00 | 58 | 1002.3 |
| 20260505064057 | 13 | 77 | 1.6 | 1.6 | 0.00 | 0.00 | 0.00 | 57 | 1002.5 |
| 20260505063553 | 13 | 84 | 1.6 | 1.6 | 0.00 | 0.00 | 0.00 | 55 | 1002.2 |
| 20260505063049 | 13 | 179 | 3.2 | 3.2 | 0.00 | 0.00 | 0.00 | 55 | 1002.3 |
| 20260505062546 | 14 | 51 | 3.2 | 4.8 | 0.00 | 0.00 | 0.00 | 52 | 1002.4 |
| 20260505062043 | 14 | 44 | 3.2 | 4.8 | 0.00 | 0.00 | 0.00 | 52 | 1002.2 |
| 20260505061540 | 14 | 4 | 3.2 | 8.0 | 0.00 | 0.00 | 0.00 | 52 | 1002.3 |
| 20260505061038 | 14 | 20 | 1.6 | 4.8 | 0.00 | 0.00 | 0.00 | 54 | 1002.1 |
| 20260505060536 | 14 | 77 | 3.2 | 3.2 | 0.00 | 0.00 | 0.00 | 55 | 1002.0 |
| 20260505060032 | 14 | 89 | 1.6 | 3.2 | 0.00 | 0.00 | 0.00 | 55 | 1002.3 |
| 20260505055527 | 14 | 44 | 1.6 | 8.0 | 0.00 | 0.00 | 0.00 | 54 | 1002.1 |
| 20260505055024 | 14 | 78 | 1.6 | 3.2 | 0.00 | 0.00 | 0.00 | 58 | 1002.0 |
| 20260505054522 | 14 | 132 | 1.6 | 8.0 | 0.00 | 0.00 | 0.00 | 55 | 1002.0 |
| 20260505054020 | 14 | 270 | 1.6 | 3.2 | 0.00 | 0.00 | 0.00 | 56 | 1002.3 |
| 20260505053517 | 14 | 312 | 1.6 | 4.8 | 0.00 | 0.00 | 0.00 | 57 | 1002.3 |
| 20260505053013 | 13 | 315 | 3.2 | 4.8 | 0.00 | 0.00 | 0.00 | 59 | 1002.4 |
| 20260505052510 | 13 | 2 | 1.6 | 3.2 | 0.00 | 0.00 | 0.00 | 64 | 1002.0 |
| 20260505052008 | 13 | 75 | 0.0 | 1.6 | 0.00 | 0.00 | 0.00 | 69 | 1001.9 |
| 20260505051504 | 12 | 84 | 0.0 | 1.6 | 0.00 | 0.00 | 0.00 | 74 | 1001.8 |
| 20260505051003 | 12 | 124 | 0.0 | 0.0 | 0.00 | 0.00 | 0.00 | 75 | 1001.7 |
| 20260505050500 | 13 | 125 | 0.0 | 0.0 | 0.00 | 0.00 | 0.00 | 75 | 1001.7 |